Location: Unspecified
(49.8670°N, 0.0000°E)
Time: 11:23:05
(UTC+00:00)

Vanguard 1 - Pass Details

Date: 26 June 2019
Orbit: 653 x 3830 km, 34.3° (Epoch: 16 July)

Event Time Altitude Azimuth Distance (km) Brightness Sun altitude
Rises 00:00:35 0° 209° (SSW) 7,962 - -16.8°
Reaches altitude 10° 00:07:34 10° 199° (SSW) 6,855 - -16.8°
Exits shadow 00:14:22 20° 185° (S) 5,829 13.3 -16.7°
Maximum altitude 00:23:42 27° 152° (SSE) 4,797 13.1 -16.6°
Drops below altitude 10° 00:35:36 10° 103° (ESE) 5,042 13.6 -16.4°
Sets 00:39:37 0° 91° (E) 5,610 14.0 -16.3°
